Location: Franzen
(48.6167°N, 15.3833°E)
Time: 05:54:19
(UTC+00:00)

Altair - Pass Details

Date: 11 August 2021
Orbit: 1501 x 1682 km, 47.2° (Epoch: 21 September)

Event Time Altitude Azimuth Distance (km) Brightness Sun altitude
Rises 21:20:18 0° 219° (SW) 4,839 9.9 -22.4°
Reaches altitude 10° 21:23:37 10° 214° (SW) 3,831 9.3 -22.6°
Maximum altitude 21:32:39 46° 145° (SE) 2,025 7.6 -23.3°
Drops below altitude 10° 21:41:23 10° 77° (ENE) 3,711 9.4 -23.8°
Sets 21:44:32 0° 71° (ENE) 4,677 10.0 -24.0°
